Regional Weather Roundup
Issued by NWS Jackson, KY

Home | Current Version | Previous Version | Graphics & Text | Print | Product List | Glossary On
Versions: 1 2 3 4 5 6 7 8 9 10 11 12 13 14 15 16 17 18 19 20 21 22 23 24 25 26 27 28 29 30 31 32 33 34 35 36 37 38 39 40 41 42 43 44 45 46 47 48 49 50
000
ASUS43 KJKL 242110
RWRJKL

EAST KENTUCKY HOURLY WEATHER ROUNDUP
NATIONAL WEATHER SERVICE JACKSON KY
500 PM EDT SAT JUN 24 2017

NOTE: "FAIR" INDICATES FEW OR NO CLOUDS BELOW 12,000 FEET WITH
NO SIGNIFICANT WEATHER AND/OR OBSTRUCTIONS TO VISIBILITY.

* THESE REPORTS ARE NOT UNDER NWS QUALITY CONTROL AND MAY NOT
  REPORT WEATHER SUCH AS PRECIPITATION AND FOG.

KYZ079-080-083-085-087-088-110-112-115-119-120-242200
...EASTERN KENTUCKY...

CITY           SKY/WX    TMP DP  RH WIND       PRES   REMARKS
JACKSON        MOSUNNY   79  60  52 VRB5      30.02F
LONDON         MOSUNNY   80  59  48 W10       30.03S
SOMERSET*      CLOUDY    79  55  44 W10       30.04F
MONTICELLO*    MOSUNNY   80  63  55 W10       30.05F
WILLIAMSBURG*  CLEAR     81  61  50 W8        30.03S
MIDDLESBORO*   MOSUNNY   81  61  49 NW7       30.02S
HARLAN APT*    PTCLDY    81  55  41 W7        30.03S
PIKE CO APT*   PTSUNNY   77  59  53 W7        30.02F
BIG SANDY APT* PTCLDY    80  61  53 W6        30.01S
MOREHEAD APT*  CLOUDY    79  55  44 W9G16     30.03S HAZE
$$

KYZ035-036-041-042-044-050-067-078-099-242200
...CENTRAL KENTUCKY...

CITY           SKY/WX    TMP DP  RH WIND       PRES   REMARKS
MT STERLING*   MOSUNNY   77  57  50 NW9G17    30.04S
FLEMING/MASON* MOSUNNY   77  57  49 NW13      30.02S
DANVILLE*      PTSUNNY   79  57  47 W10       30.05S
LEXINGTON      CLOUDY    77  56  48 NW8       30.03F
FRANKFORT      MOSUNNY   80  56  43 W7        30.02S
LOUISVILLE     PTSUNNY   80  56  43 NW15G23   30.03S
LEBANON*         N/A    N/A N/A N/A MISG        N/A
GLASGOW*       MOSUNNY   79  55  43 NW6       30.05F
BOWLING GREEN  MOSUNNY   80  60  50 W9        30.06S
$$

KYZ091>093-OHZ055-061-077-WVZ005-015-034-035-042-242200
...SOUTHERN OHIO/WEST VIRGINIA...

CITY           SKY/WX    TMP DP  RH WIND       PRES   REMARKS
COVINGTON      PTSUNNY   78  59  51 NW13      30.01F
COLUMBUS       MOSUNNY   78  55  44 W15G22    29.96S
DAYTON         MOSUNNY   77  54  44 W17       30.00S
WILMINGTON     SUNNY     76  57  51 W17       29.99F
HUNTINGTON     MOSUNNY   81  59  47 W8        29.98S
CHARLESTON     CLOUDY    79  57  46 SW13      29.98S
PINEVILLE*     MOSUNNY   82  58  43 MISG      30.06F
BECKLEY        MOSUNNY   76  56  49 NW13      30.05S
BLUEFIELD      MOSUNNY   74  57  55 NW9       30.07S
LOGAN CO APT*    N/A     77  59  53 W7        30.02S
$$

VAZ002-007-008-TNZ017-027-036-066-071-242200
...SOUTHWEST VIRGINIA/EAST TENNESSEE...

CITY           SKY/WX    TMP DP  RH WIND       PRES   REMARKS
WISE*          SUNNY     77  55  47 NW5       30.09R
JONESVILLE*      N/A     84  59  42 NW7       30.03S
ABINGDON*      CLOUDY    80  67  65 NW5       30.03R
BRISTOL        MOSUNNY   84  65  52 W8        29.99F
MORRISTOWN*    CLEAR     82  61  47 NW12      29.99S
SEVIERVILLE*   MOCLDY    81  72  74 CALM      29.98R
KNOXVILLE      PTSUNNY   85  63  47 W12       29.98S
LAFOLLETTE*    PTCLDY    82  61  47 NE9G16    30.04F
OAK RIDGE      SUNNY     88  59  37 MISG      30.00S
CROSSVILLE     MOSUNNY   78  61  55 N9        30.07F
NASHVILLE      PTSUNNY   83  57  41 NW10      30.06S
$$

...KEY TO REMARKS...
VSB - VISIBILITY IN MILES
WCI - WIND CHILL INDEX
HX  - HEAT INDEX

$$



USA.gov is the U.S. government's official web portal to all federal, state and local government web resources and services.